Billings, MT

4:39 PM MDT on April 23, 2017 (GMT -0600)
Billings Logan International

Weather History for KBIL - February, 2014

Change the Weather History Date:

Thursday, February 27, 2014

  Actual Average Record
Temperature  
Mean Temperature 23 °F 33 °F  
Max Temperature 37 °F 44 °F 70 °F (1992)
Min Temperature 8 °F 23 °F -15 °F (1962)
Degree Days  
Heating Degree Days 42 32  
Month to date heating degree days 1233 937  
Since 1 July heating degree days 5220 4933  
Cooling Degree Days 0 0  
Month to date cooling degree days 0 0  
Year to date cooling degree days 0 0  
Moisture  
Dew Point 16 °F    
Average Humidity 70    
Maximum Humidity 92    
Minimum Humidity 47    
Precipitation  
Precipitation 0.24 in 0.02 in 0.37 in (1970)
Month to date precipitation 1.78 0.46  
Year to date precipitation 2.80 0.94  
Snow  
Snow 1.30 in 0.20 in 6.80 in (1951)
Month to date snowfall 29.7 5.9  
Since 1 July snowfall 82.9 34.2  
Snow Depth 11.00 in    
Sea Level Pressure  
Sea Level Pressure 29.72 in    
Wind  
Wind Speed 15 mph (SW)    
Max Wind Speed 25 mph    
Max Gust Speed 31 mph    
Visibility 8 miles    
Events Fog , Rain , Snow    
T = Trace of Precipitation, MM = Missing Value Source: NWS Daily Summary

Daily Weather History Graph

Daily Weather History Graph

Search for Another Location

Airport or City:

Trip Planner

Search our weather history database for the weather conditions in past years. The results will help you decide how hot, cold, wet, or windy it might be!

Date:

Astronomy

Feb. 27, 2014 Rise Set
Actual Time 6:56 AM MST 5:58 PM MST
Civil Twilight 6:26 AM MST 6:28 PM MST
Nautical Twilight 5:51 AM MST 7:02 PM MST
Astronomical Twilight 5:17 AM MST 7:37 PM MST
Moon 5:34 AM MST (2/27) 4:24 PM MST (2/27)
Length of Visible Light 12h 01m
Length of Day
11h 01m
Waning Crescent, 4% of the Moon is Illuminated
Feb 27
Waning Crescent
Mar 1
New
Mar 8
First Quarter
Mar 16
Full
Mar 23
Last Quarter

Hourly Weather History & Observations

Time (MST) Temp. Windchill Dew Point Humidity Pressure Visibility Wind Dir Wind Speed Gust Speed Precip Events Conditions
12:53 AM 8.1 °F -7.0 °F 1.0 °F 73% 29.98 in 10.0 mi SSW 11.5 mph - N/A   Clear
1:53 AM 12.9 °F -3.9 °F 3.0 °F 65% 29.95 in 10.0 mi WSW 17.3 mph - N/A   Clear
2:53 AM 10.0 °F -6.5 °F 1.9 °F 70% 29.93 in 10.0 mi SW 15.0 mph - N/A   Mostly Cloudy
3:53 AM 12.9 °F -0.9 °F 3.0 °F 65% 29.90 in 10.0 mi SW 11.5 mph - N/A   Partly Cloudy
4:53 AM 9.0 °F -7.3 °F 1.9 °F 73% 29.88 in 10.0 mi SSW 13.8 mph - N/A   Scattered Clouds
5:53 AM 10.0 °F -3.7 °F 3.0 °F 73% 29.85 in 10.0 mi SSW 10.4 mph - N/A   Mostly Cloudy
6:53 AM 14.0 °F 1.2 °F 3.9 °F 64% 29.81 in 10.0 mi SW 10.4 mph - N/A   Scattered Clouds
7:53 AM 12.0 °F -2.0 °F 3.9 °F 70% 29.80 in 10.0 mi SW 11.5 mph - N/A   Scattered Clouds
8:53 AM 16.0 °F -0.4 °F 7.0 °F 68% 29.77 in 10.0 mi SW 18.4 mph - N/A   Scattered Clouds
9:53 AM 21.0 °F 8.1 °F 10.0 °F 63% 29.74 in 10.0 mi SSW 13.8 mph - N/A   Partly Cloudy
10:53 AM 24.1 °F 13.1 °F 10.9 °F 57% 29.72 in 10.0 mi SSW 11.5 mph - N/A   Partly Cloudy
11:53 AM 28.0 °F 18.1 °F 15.1 °F 58% 29.70 in 10.0 mi South 11.5 mph - N/A   Mostly Cloudy
12:53 PM 32.0 °F 24.8 °F 17.1 °F 54% 29.66 in 10.0 mi South 8.1 mph - N/A   Mostly Cloudy
1:53 PM 36.0 °F 26.3 °F 18.0 °F 48% 29.61 in 10.0 mi SW 16.1 mph - N/A   Mostly Cloudy
2:53 PM 37.0 °F 26.4 °F 19.0 °F 48% 29.61 in 10.0 mi SSW 20.7 mph - N/A   Mostly Cloudy
3:53 PM 37.0 °F 26.7 °F 19.0 °F 48% 29.60 in 10.0 mi SW 19.6 mph - N/A   Mostly Cloudy
4:53 PM 36.0 °F 24.7 °F 19.9 °F 52% 29.59 in 10.0 mi SW 21.9 mph - N/A   Mostly Cloudy
5:53 PM 36.0 °F 24.7 °F 19.9 °F 52% 29.59 in 10.0 mi SW 21.9 mph - 0.00 in   Overcast
6:53 PM 36.0 °F 25.6 °F 21.0 °F 55% 29.59 in 10.0 mi SW 18.4 mph - N/A   Overcast
7:53 PM 36.0 °F 27.1 °F 24.1 °F 62% 29.60 in 10.0 mi SW 13.8 mph - 0.00 in Rain , Snow Light Rain
8:53 PM 34.0 °F 26.6 °F 28.0 °F 79% 29.61 in 9.0 mi SW 9.2 mph - 0.02 in Rain , Snow Light Rain
9:49 PM 35.6 °F 25.5 °F 32.0 °F 87% 29.55 in 1.0 mi NNE 17.3 mph 21.9 mph 0.09 in Rain , Snow Rain
9:53 PM 32.0 °F 21.6 °F 30.0 °F 92% 29.65 in 0.8 mi NE 15.0 mph 21.9 mph 0.10 in Snow Light Snow
9:58 PM 32.0 °F 22.5 °F 30.0 °F 92% 29.56 in 0.5 mi NNE 12.7 mph - 0.02 in Fog , Snow Snow
10:53 PM 30.0 °F 21.1 °F 28.0 °F 92% 29.70 in 0.8 mi NE 10.4 mph - 0.11 in Snow Light Snow
11:07 PM 28.9 °F 18.2 °F 28.0 °F 96% 29.61 in 1.0 mi NNE 13.8 mph - 0.01 in Snow Light Snow
11:23 PM 28.0 °F 15.7 °F 26.1 °F 92% 29.62 in 1.5 mi NNE 17.3 mph - 0.01 in Snow Light Snow
11:53 PM 27.0 °F 13.9 °F 25.0 °F 92% 29.74 in 1.0 mi NNE 18.4 mph 26.5 mph 0.01 in Snow Light Snow